Voltar ao catálogo

COSMOS 1275 DEB

LostPO
NORAD 42173·DEBRIS·🇷🇺 Russia

Lançado Jun 4, 1981 de Plesetsk Cosmodrome

Loading…

Próximas Passagens (próximas 24 horas)

TLE

ObsoletoSource: Space-Track

Época: Mar 27, 2024, 20:52 UTC

1 42173U 81053SM  24087.86959335  .00002047  00000-0  28207-2 0  9997
2 42173  83.2329 144.0815 0201038 317.8320  40.7503 13.50071039439056

Acompanhe COSMOS 1275 DEB em tempo real com AllMySat

Download on the App Store